[[{"header":{"parameterUnit":"m.s-1","parameterCategory":1,"la1":30.2992,"la2":30.254,"lo1":-89.0895,"lo2":-89.0443,"dy":0.0025,"dx":0.0025,"nx":19,"ny":19,"refTime":"2026-04-21T03:00:00:Z","depth":0,"parameterNumber":2,"parameterNumberName":"U-component_of_WINDS"},"data":[0,0,0,-3.6195,-3.6199,-3.6406,-3.6407,-3.6649,-3.6651,0,0,0,0,0,0,0,0,0,0,0,-3.612,-3.6121,-3.6194,-3.6199,-3.6406,-3.6407,-3.6649,-3.6651,0,0,0,0,0,0,0,0,0,0,0,-3.6119,-3.6121,-3.6122,-3.62,-3.6406,-3.6407,-3.6648,-3.65,0,0,0,0,0,0,0,0,0,0,-3.6303,-3.622,-3.612,-3.6122,-3.6201,-3.6406,-3.6407,-3.6493,-3.6509,-3.6545,0,-3.6574,0,-3.6616,-3.6666,-3.6666,0,0,0,-3.6209,-3.6207,-3.6275,-3.6122,-3.6203,-3.6405,-3.6316,-3.6502,-3.652,-3.6566,-3.6578,-3.6587,-3.662,-3.6667,-3.6668,-3.6842,-3.6842,0,0,-3.6198,-3.615,-3.6262,-3.6286,-3.6253,-3.6309,-3.6322,-3.6514,-3.6523,-3.6579,-3.6593,-3.6624,-3.6669,-3.667,-3.6842,-3.6842,0,0,0,-3.6158,-3.6141,-3.6205,-3.6275,-3.6314,-3.6315,-3.633,-3.6514,-3.6539,-3.6596,-3.6627,-3.667,-3.6672,-3.6842,-3.6842,-3.6811,0,0,0,-3.6152,-3.6118,-3.62,-3.6172,-3.631,-3.6417,-3.6325,-3.6526,-3.6549,-3.6626,-3.667,-3.6675,-3.6841,-3.6842,-3.6811,-3.6803,0,0,0,-3.6111,-3.6114,-3.6139,-3.6169,-3.6257,-3.6415,-3.6452,-3.6532,-3.6568,-3.6667,-3.6675,-3.6841,-3.6842,-3.6811,-3.6804,-3.6834,0,0,0,-3.6053,-3.6109,-3.6137,-3.6211,-3.6254,-3.6395,-3.6451,-3.6558,-3.6639,-3.6671,-3.6841,-3.6842,-3.6811,-3.6804,-3.6834,-3.6849,-3.6852,0,0,-3.6096,-3.6112,-3.6159,-3.6191,-3.6314,-3.6367,-3.6485,-3.6606,-3.666,-3.6778,-3.6783,-3.6811,-3.6804,-3.6834,-3.6885,-3.6886,0,0,0,-3.6156,-3.6189,-3.6233,-3.6308,-3.6401,-3.648,-3.6588,-3.6632,-3.6735,-3.6711,-3.6832,-3.683,-3.6849,-3.6859,-3.686,-3.6879,-3.6845,-3.6845,-3.6845,-3.6147,-3.6213,-3.6295,-3.6385,-3.6457,-3.6568,-3.6632,-3.6711,-3.6757,-3.6784,-3.6819,-3.6842,-3.6852,-3.6853,-3.6872,-3.6834,-3.6834,-3.6834,-3.6834,-3.6214,-3.627,-3.633,-3.6431,-3.65,-3.6586,-3.6694,-3.6723,-3.6813,-3.6821,-3.6842,-3.6844,-3.6852,-3.6873,-3.6833,-3.6833,-3.6833,-3.6833,-3.6833,-3.6213,-3.6252,-3.6305,-3.642,-3.6501,-3.6592,-3.6674,-3.6735,-3.6793,-3.6813,-3.6856,-3.6857,-3.6864,-3.683,-3.683,-3.683,-3.683,-3.683,-3.683,-3.619,-3.6252,-3.6314,-3.6418,-3.6473,-3.6555,-3.6666,-3.6723,-3.6801,-3.6839,-3.6839,-3.6881,-3.6842,-3.6829,-3.6832,-3.6831,-3.6831,-3.6831,-3.6831,-3.6231,-3.6232,-3.6327,-3.6383,-3.6509,-3.6585,-3.6662,-3.6772,-3.6828,-3.6866,-3.6905,-3.6866,-3.6887,-3.6886,-3.6876,-3.6891,-3.6891,-3.6891,-3.6891,-3.6229,-3.6246,-3.6357,-3.6442,-3.6532,-3.6611,-3.6717,-3.6804,-3.6894,-3.6933,-3.694,-3.6933,-3.6929,-3.6952,-3.695,-3.6942,-3.6973,-3.6973,-3.6973,-3.6257,-3.6285,-3.6363,-3.6451,-3.6554,-3.6641,-3.6742,-3.6837,-3.694,-3.6977,-3.6964,-3.696,-3.695,-3.6943,-3.6978,-3.6973,-3.6959,0,0]},{"header":{"parameterUnit":"m.s-1","parameterCategory":1,"la1":30.2992,"la2":30.254,"lo1":-89.0895,"lo2":-89.0443,"dy":0.0025,"dx":0.0025,"nx":19,"ny":19,"refTime":"2026-04-21T03:00:00:Z","depth":0,"parameterNumber":3,"parameterNumberName":"V-component_of_WINDS"},"data":[0,0,0,6.0033,6.0036,6.0175,6.0175,6.0349,6.0351,0,0,0,0,0,0,0,0,0,0,0,5.9993,5.9994,6.0033,6.0036,6.0175,6.0175,6.0349,6.0351,0,0,0,0,0,0,0,0,0,0,0,5.9993,5.9994,5.9996,6.0037,6.0174,6.0175,6.0349,6.0244,0,0,0,0,0,0,0,0,0,0,6.011,6.0075,5.9994,5.9996,6.0038,6.0174,6.0175,6.0239,6.0251,6.0286,0,6.0321,0,6.0339,6.0363,6.0363,0,0,0,6.0034,6.0066,6.0102,5.9996,6.0039,6.0174,6.0112,6.0246,6.0259,6.0302,6.0323,6.033,6.0342,6.0364,6.0365,6.0581,6.0582,0,0,6.0027,6.0018,6.0094,6.0111,6.0093,6.0107,6.0116,6.0254,6.0276,6.0324,6.0334,6.0345,6.0365,6.0366,6.058,6.0581,0,0,0,6.0006,6.0013,6.0046,6.0104,6.0129,6.0111,6.0121,6.0269,6.0281,6.0336,6.0347,6.0366,6.0368,6.0578,6.058,6.0625,0,0,0,6.0001,6.0001,6.0043,6.0039,6.0127,6.0202,6.0134,6.0272,6.0288,6.0346,6.0366,6.037,6.0577,6.0579,6.0621,6.0646,0,0,0,5.9984,5.9998,6.0019,6.0038,6.0098,6.02,6.0219,6.0275,6.0294,6.0363,6.037,6.0576,6.0579,6.0618,6.0641,6.0699,0,0,0,5.9961,6.0057,6.002,6.0131,6.0096,6.0228,6.0219,6.0317,6.0381,6.0367,6.0577,6.058,6.0617,6.0638,6.0695,6.0745,6.0766,0,0,6.0077,6.007,6.0136,6.0107,6.0244,6.0208,6.035,6.0416,6.043,6.0529,6.0534,6.0622,6.064,6.0698,6.0889,6.0905,0,0,0,6.017,6.0216,6.0255,6.0317,6.0372,6.042,6.0467,6.0491,6.0576,6.048,6.0661,6.0672,6.0706,6.073,6.0744,6.0772,6.0591,6.0591,6.0591,6.0318,6.0332,6.0441,6.0472,6.0533,6.058,6.0629,6.067,6.0665,6.0708,6.0736,6.0851,6.0878,6.0889,6.0919,6.0766,6.0766,6.0766,6.0766,6.0486,6.0553,6.0547,6.065,6.0664,6.075,6.0799,6.0792,6.0872,6.083,6.0861,6.0811,6.0906,6.0933,6.077,6.0769,6.0769,6.0769,6.0768,6.0582,6.0617,6.0647,6.0739,6.0807,6.0835,6.0912,6.0922,6.0931,6.0962,6.0991,6.0991,6.0989,6.0976,6.0977,6.0977,6.0977,6.0978,6.0978,6.0669,6.0702,6.0767,6.0834,6.0875,6.093,6.0979,6.1019,6.1065,6.1065,6.1065,6.1054,6.0915,6.0877,6.0984,6.0983,6.0982,6.0981,6.0981,6.0829,6.0795,6.0896,6.0937,6.1016,6.1082,6.1094,6.1174,6.1209,6.1246,6.123,6.1126,6.1119,6.1108,6.1077,6.1228,6.1228,6.1228,6.1228,6.0908,6.0907,6.1012,6.1077,6.1142,6.1164,6.1274,6.1313,6.1347,6.1368,6.1348,6.1309,6.1298,6.1297,6.1282,6.1253,6.1446,6.1447,6.1447,6.1006,6.1012,6.1105,6.114,6.1203,6.1255,6.1358,6.1431,6.1462,6.1456,6.1384,6.1375,6.1312,6.1292,6.128,6.1257,6.1204,0,0]}]]